| time (UTC) | temp F | wind direction | speed MPH | gust MPH | rain 1hr in | rain 24hr in | rain mn in | humidity % | barometer mb |
| 20260905020204 | 72 | 56 | 1.0 | 1.0 | 0.00 | 0.82 | 0.66 | 94 | 992.0 |
| 20260905014703 | 72 | 16 | 0.0 | 0.0 | 0.00 | 0.82 | 0.66 | 94 | 991.8 |
| 20260905013204 | 72 | 16 | 0.0 | 1.0 | 0.00 | 0.82 | 0.66 | 94 | 992.0 |
| 20260905011704 | 72 | 324 | 0.0 | 0.0 | 0.00 | 0.82 | 0.66 | 94 | 991.7 |
| 20260905010704 | 72 | 324 | 0.0 | 0.0 | 0.00 | 0.82 | 0.66 | 94 | 991.7 |
| 20260905010204 | 72 | 324 | 0.0 | 0.0 | 0.00 | 0.82 | 0.66 | 94 | 991.7 |
| 20260905004704 | 72 | 324 | 1.0 | 1.0 | 0.00 | 0.82 | 0.66 | 94 | 991.8 |
| 20260905004204 | 72 | 67 | 1.0 | 1.0 | 0.00 | 0.82 | 0.66 | 94 | 991.7 |
| 20260905003705 | 72 | 63 | 1.0 | 2.0 | 0.00 | 0.82 | 0.66 | 94 | 991.6 |
| 20260905001703 | 73 | 57 | 0.0 | 2.0 | 0.00 | 0.82 | 0.66 | 94 | 991.8 |
| 20260905001203 | 73 | 54 | 0.0 | 2.0 | 0.00 | 0.82 | 0.66 | 94 | 991.7 |
| 20260905000204 | 73 | 103 | 0.0 | 2.0 | 0.00 | 0.82 | 0.66 | 94 | 991.7 |
| 20260904234705 | 73 | 76 | 1.0 | 2.0 | 0.00 | 0.82 | 0.66 | 93 | 991.5 |
| 20260904233704 | 73 | 115 | 0.0 | 2.0 | 0.00 | 0.82 | 0.66 | 93 | 991.6 |
| 20260904233204 | 73 | 116 | 0.0 | 2.0 | 0.00 | 0.82 | 0.66 | 93 | 991.5 |
| 20260904231705 | 73 | 70 | 2.0 | 5.0 | 0.00 | 0.82 | 0.66 | 93 | 991.4 |
| 20260904231204 | 73 | 81 | 2.0 | 3.0 | 0.00 | 0.82 | 0.66 | 93 | 991.3 |
| 20260904230703 | 73 | 74 | 1.0 | 5.0 | 0.00 | 0.82 | 0.66 | 93 | 991.3 |
| 20260904230203 | 73 | 74 | 2.0 | 5.0 | 0.00 | 0.82 | 0.66 | 93 | 991.2 |
| 20260904224705 | 73 | 76 | 1.0 | 3.0 | 0.00 | 0.82 | 0.66 | 92 | 991.2 |
| 20260904224204 | 73 | 68 | 2.0 | 3.0 | 0.00 | 0.82 | 0.66 | 92 | 991.2 |
| 20260904223704 | 74 | 91 | 1.0 | 3.0 | 0.00 | 0.82 | 0.66 | 92 | 991.2 |
| 20260904223205 | 74 | 78 | 1.0 | 3.0 | 0.00 | 0.82 | 0.66 | 91 | 991.2 |
| 20260904221704 | 74 | 67 | 0.0 | 2.0 | 0.00 | 0.82 | 0.66 | 91 | 991.2 |
| 20260904221204 | 74 | 74 | 1.0 | 3.0 | 0.00 | 0.82 | 0.66 | 90 | 991.2 |
| 20260904220704 | 74 | 134 | 1.0 | 3.0 | 0.00 | 0.82 | 0.66 | 91 | 991.2 |
| 20260904220204 | 74 | 75 | 2.0 | 3.0 | 0.00 | 0.82 | 0.66 | 90 | 991.1 |
| 20260904214703 | 74 | 68 | 2.0 | 3.0 | 0.00 | 0.82 | 0.66 | 90 | 990.9 |
| 20260904214203 | 75 | 69 | 2.0 | 3.0 | 0.00 | 0.82 | 0.66 | 90 | 990.9 |
| 20260904213704 | 75 | 50 | 1.0 | 3.0 | 0.00 | 0.82 | 0.66 | 90 | 990.8 |
| 20260904213204 | 74 | 63 | 1.0 | 3.0 | 0.00 | 0.82 | 0.66 | 90 | 990.7 |
| 20260904211704 | 75 | 163 | 2.0 | 6.0 | 0.00 | 0.82 | 0.66 | 89 | 990.6 |
| 20260904211204 | 75 | 70 | 3.0 | 6.0 | 0.00 | 0.82 | 0.66 | 89 | 990.6 |
| 20260904210704 | 75 | 70 | 1.0 | 6.0 | 0.00 | 0.82 | 0.66 | 88 | 990.6 |
| 20260904210205 | 75 | 70 | 3.0 | 6.0 | 0.00 | 0.82 | 0.66 | 89 | 990.5 |
| 20260904204704 | 74 | 71 | 3.0 | 8.0 | 0.00 | 0.82 | 0.66 | 90 | 990.6 |
| 20260904204203 | 75 | 73 | 2.0 | 8.0 | 0.00 | 0.82 | 0.66 | 89 | 990.6 |
| 20260904203704 | 76 | 77 | 2.0 | 7.0 | 0.00 | 0.82 | 0.66 | 85 | 990.6 |
| 20260904201703 | 74 | 143 | 2.0 | 5.0 | 0.00 | 0.82 | 0.66 | 87 | 990.6 |
| 20260904201203 | 74 | 97 | 2.0 | 5.0 | 0.00 | 0.82 | 0.66 | 88 | 990.7 |
| 20260904200703 | 73 | 123 | 3.0 | 7.0 | 0.00 | 0.82 | 0.66 | 88 | 990.7 |
| 20260904194704 | 74 | 105 | 2.0 | 6.0 | 0.00 | 0.82 | 0.66 | 88 | 990.9 |
| 20260904194205 | 74 | 115 | 2.0 | 6.0 | 0.00 | 0.82 | 0.66 | 87 | 991.0 |
| 20260904193704 | 75 | 130 | 2.0 | 5.0 | 0.00 | 0.82 | 0.66 | 87 | 991.0 |
| 20260904193205 | 75 | 98 | 2.0 | 5.0 | 0.00 | 0.82 | 0.66 | 87 | 991.0 |
| 20260904191704 | 75 | 150 | 2.0 | 3.0 | 0.00 | 0.82 | 0.66 | 86 | 991.2 |
| 20260904191204 | 75 | 201 | 2.0 | 3.0 | 0.00 | 0.82 | 0.66 | 86 | 991.3 |
| 20260904190704 | 75 | 158 | 2.0 | 5.0 | 0.00 | 0.82 | 0.66 | 86 | 991.3 |
| 20260904184703 | 76 | 266 | 2.0 | 5.0 | 0.00 | 0.82 | 0.66 | 85 | 991.2 |
| 20260904184203 | 76 | 231 | 1.0 | 2.0 | 0.00 | 0.82 | 0.66 | 85 | 991.2 |
| 20260904183705 | 75 | 136 | 1.0 | 2.0 | 0.00 | 0.82 | 0.66 | 86 | 991.2 |
| 20260904183205 | 75 | 317 | 1.0 | 5.0 | 0.00 | 0.82 | 0.66 | 87 | 991.2 |
| 20260904181704 | 74 | 121 | 1.0 | 3.0 | 0.00 | 0.83 | 0.66 | 87 | 991.2 |
| 20260904181205 | 74 | 124 | 2.0 | 5.0 | 0.00 | 0.83 | 0.66 | 86 | 991.1 |
| 20260904180705 | 73 | 121 | 2.0 | 6.0 | 0.00 | 0.83 | 0.66 | 88 | 991.1 |
| 20260904180204 | 73 | 223 | 2.0 | 6.0 | 0.00 | 0.83 | 0.66 | 89 | 991.3 |
| 20260904173704 | 74 | 265 | 2.0 | 5.0 | 0.00 | 0.84 | 0.66 | 87 | 991.4 |
| 20260904173205 | 74 | 211 | 1.0 | 5.0 | 0.00 | 0.84 | 0.66 | 88 | 991.4 |
| 20260904171204 | 73 | 124 | 2.0 | 5.0 | 0.00 | 0.84 | 0.66 | 88 | 991.3 |
| 20260904170205 | 72 | 145 | 3.0 | 5.0 | 0.00 | 0.84 | 0.66 | 89 | 991.3 |
| 20260904164705 | 72 | 95 | 2.0 | 5.0 | 0.00 | 0.84 | 0.66 | 90 | 991.4 |
| 20260904164204 | 72 | 48 | 2.0 | 3.0 | 0.00 | 0.84 | 0.66 | 90 | 991.4 |
| 20260904163704 | 72 | 97 | 2.0 | 2.0 | 0.00 | 0.84 | 0.66 | 90 | 991.5 |
| 20260904163204 | 72 | 118 | 1.0 | 2.0 | 0.00 | 0.84 | 0.66 | 90 | 991.6 |
| 20260904161704 | 72 | 114 | 1.0 | 3.0 | 0.00 | 0.84 | 0.66 | 88 | 991.6 |
| 20260904161204 | 73 | 137 | 1.0 | 3.0 | 0.00 | 0.85 | 0.66 | 88 | 991.7 |
| 20260904160203 | 72 | 141 | 2.0 | 3.0 | 0.00 | 0.94 | 0.66 | 89 | 991.3 |
| 20260904154703 | 72 | 187 | 1.0 | 3.0 | 0.00 | 0.98 | 0.66 | 89 | 991.3 |
| 20260904154203 | 72 | 116 | 1.0 | 3.0 | 0.00 | 0.99 | 0.66 | 90 | 991.4 |
| 20260904153204 | 71 | 257 | 1.0 | 5.0 | 0.00 | 0.99 | 0.66 | 90 | 991.4 |
| 20260904151203 | 70 | 169 | 2.0 | 2.0 | 0.00 | 0.99 | 0.66 | 91 | 991.0 |
| 20260904150703 | 70 | 248 | 1.0 | 3.0 | 0.00 | 0.99 | 0.66 | 91 | 991.2 |
| 20260904150204 | 70 | 253 | 3.0 | 3.0 | 0.00 | 0.99 | 0.66 | 91 | 991.2 |
| 20260904144205 | 69 | 246 | 2.0 | 3.0 | 0.00 | 1.04 | 0.66 | 93 | 991.3 |
| 20260904143704 | 69 | 231 | 1.0 | 5.0 | 0.00 | 1.04 | 0.66 | 93 | 991.3 |
| 20260904143204 | 68 | 254 | 2.0 | 8.0 | 0.00 | 1.04 | 0.66 | 93 | 991.2 |
| 20260904141704 | 68 | 243 | 3.0 | 8.0 | 0.00 | 1.04 | 0.66 | 94 | 991.2 |
| 20260904141204 | 68 | 249 | 5.0 | 8.0 | 0.00 | 1.04 | 0.66 | 94 | 991.0 |
| 20260904140704 | 68 | 195 | 1.0 | 5.0 | 0.00 | 1.04 | 0.66 | 94 | 990.7 |
| 20260904140205 | 68 | 241 | 3.0 | 8.0 | 0.00 | 1.04 | 0.66 | 94 | 990.6 |
| 20260904134704 | 68 | 204 | 3.0 | 9.0 | 0.15 | 1.04 | 0.66 | 93 | 991.1 |
| 20260904134203 | 68 | 195 | 3.0 | 9.0 | 0.15 | 1.04 | 0.66 | 93 | 991.1 |
| 20260904133204 | 68 | 219 | 3.0 | 8.0 | 0.15 | 1.04 | 0.66 | 92 | 991.6 |
| 20260904131704 | 68 | 203 | 4.0 | 10.0 | 0.15 | 1.04 | 0.66 | 93 | 992.0 |
| 20260904131205 | 68 | 211 | 5.0 | 10.0 | 0.15 | 1.04 | 0.66 | 94 | 992.1 |
| 20260904130703 | 68 | 251 | 2.0 | 8.0 | 0.15 | 1.04 | 0.66 | 94 | 992.0 |
| 20260904124703 | 67 | 232 | 3.0 | 10.0 | 0.00 | 0.88 | 0.51 | 95 | 991.6 |
| 20260904123705 | 67 | 246 | 4.0 | 10.0 | 0.05 | 0.88 | 0.51 | 96 | 991.4 |
| 20260904123204 | 67 | 159 | 3.0 | 10.0 | 0.05 | 0.88 | 0.51 | 96 | 990.8 |
| 20260904121703 | 67 | 232 | 4.0 | 7.0 | 0.05 | 0.88 | 0.51 | 96 | 991.1 |
| 20260904121203 | 67 | 242 | 4.0 | 7.0 | 0.05 | 0.88 | 0.51 | 96 | 991.3 |
| 20260904120704 | 67 | 228 | 3.0 | 9.0 | 0.03 | 0.88 | 0.51 | 96 | 991.2 |
| 20260904120205 | 68 | 249 | 5.0 | 9.0 | 0.03 | 0.91 | 0.51 | 96 | 991.0 |
| 20260904114704 | 68 | 255 | 3.0 | 13.0 | 0.05 | 0.96 | 0.51 | 96 | 991.8 |
| 20260904114205 | 68 | 249 | 3.0 | 8.0 | 0.00 | 0.97 | 0.47 | 96 | 992.1 |
| 20260904113203 | 67 | 219 | 4.0 | 7.0 | 0.01 | 0.97 | 0.47 | 96 | 992.1 |
| 20260904111704 | 68 | 186 | 2.0 | 7.0 | 0.13 | 0.97 | 0.46 | 96 | 991.8 |
| 20260904111204 | 68 | 207 | 3.0 | 7.0 | 0.14 | 0.97 | 0.46 | 96 | 991.9 |
| 20260904110704 | 68 | 129 | 2.0 | 8.0 | 0.16 | 0.97 | 0.48 | 96 | 991.9 |
| 20260904110205 | 68 | 69 | 2.0 | 8.0 | 0.17 | 0.97 | 0.48 | 96 | 992.5 |
| 20260904104705 | 68 | 281 | 3.0 | 8.0 | 0.18 | 0.96 | 0.47 | 96 | 991.9 |
| 20260904104204 | 68 | 235 | 3.0 | 8.0 | 0.20 | 0.96 | 0.47 | 96 | 991.7 |
| 20260904103704 | 69 | 246 | 3.0 | 7.0 | 0.22 | 0.95 | 0.46 | 96 | 992.0 |
| 20260904101704 | 68 | 254 | 1.0 | 3.0 | 0.13 | 0.82 | 0.33 | 95 | 992.1 |
| 20260904100705 | 68 | 266 | 3.0 | 5.0 | 0.12 | 0.81 | 0.32 | 95 | 992.2 |
| 20260904094704 | 69 | 186 | 2.0 | 3.0 | 0.12 | 0.76 | 0.29 | 95 | 991.2 |
| 20260904094204 | 69 | 69 | 1.0 | 5.0 | 0.10 | 0.73 | 0.26 | 95 | 990.8 |
| 20260904093703 | 69 | 234 | 2.0 | 5.0 | 0.07 | 0.70 | 0.23 | 95 | 991.6 |
| 20260904093204 | 69 | 340 | 3.0 | 6.0 | 0.07 | 0.70 | 0.22 | 95 | 991.6 |
| 20260904091704 | 69 | 284 | 3.0 | 6.0 | 0.07 | 0.67 | 0.20 | 95 | 991.7 |
| 20260904091203 | 69 | 274 | 2.0 | 3.0 | 0.07 | 0.67 | 0.20 | 95 | 990.8 |
| 20260904090203 | 69 | 110 | 3.0 | 6.0 | 0.07 | 0.67 | 0.20 | 95 | 990.6 |
| 20260904084704 | 70 | 175 | 2.0 | 8.0 | 0.11 | 0.64 | 0.17 | 95 | 990.9 |
| 20260904084204 | 70 | 232 | 3.0 | 8.0 | 0.12 | 0.63 | 0.17 | 95 | 990.6 |
| 20260904083704 | 71 | 241 | 3.0 | 9.0 | 0.13 | 0.63 | 0.16 | 95 | 990.5 |
| 20260904083204 | 71 | 333 | 3.0 | 12.0 | 0.13 | 0.62 | 0.15 | 95 | 990.6 |
| 20260904081704 | 71 | 250 | 4.0 | 8.0 | 0.10 | 0.60 | 0.13 | 96 | 990.9 |
| 20260904081205 | 71 | 231 | 3.0 | 5.0 | 0.10 | 0.60 | 0.13 | 96 | 990.7 |
| 20260904080704 | 71 | 152 | 2.0 | 5.0 | 0.10 | 0.60 | 0.13 | 96 | 990.4 |
| 20260904080203 | 71 | 243 | 3.0 | 5.0 | 0.10 | 0.59 | 0.13 | 97 | 991.2 |
| 20260904074704 | 71 | 235 | 3.0 | 5.0 | 0.03 | 0.52 | 0.06 | 97 | 991.5 |
| 20260904074204 | 71 | 262 | 2.0 | 3.0 | 0.02 | 0.50 | 0.04 | 97 | 991.6 |
| 20260904073704 | 71 | 64 | 2.0 | 3.0 | 0.00 | 0.49 | 0.03 | 97 | 991.5 |
| 20260904073204 | 71 | 314 | 2.0 | 3.0 | 0.00 | 0.49 | 0.03 | 97 | 991.7 |
| 20260904071705 | 71 | 83 | 1.0 | 3.0 | 0.01 | 0.49 | 0.03 | 97 | 991.1 |
| 20260904071204 | 71 | 74 | 2.0 | 3.0 | 0.01 | 0.49 | 0.03 | 97 | 990.7 |
| 20260904070704 | 71 | 133 | 2.0 | 3.0 | 0.01 | 0.49 | 0.03 | 97 | 990.5 |
| 20260904070204 | 71 | 212 | 1.0 | 3.0 | 0.01 | 0.49 | 0.03 | 97 | 990.8 |
| 20260904064203 | 70 | 83 | 0.0 | 3.0 | 0.02 | 0.48 | 0.03 | 97 | 990.9 |
| 20260904063704 | 70 | 83 | 0.0 | 3.0 | 0.02 | 0.48 | 0.03 | 97 | 990.9 |
| 20260904063204 | 70 | 108 | 1.0 | 5.0 | 0.02 | 0.48 | 0.03 | 97 | 990.8 |
| 20260904061704 | 69 | 66 | 2.0 | 3.0 | 0.01 | 0.47 | 0.01 | 97 | 990.5 |
| 20260904061205 | 69 | 53 | 0.0 | 2.0 | 0.01 | 0.47 | 0.01 | 97 | 990.6 |
| 20260904060704 | 69 | 49 | 2.0 | 3.0 | 0.01 | 0.47 | 0.01 | 97 | 990.9 |
| 20260904060205 | 69 | 73 | 0.0 | 3.0 | 0.01 | 0.47 | 0.01 | 97 | 991.2 |
| 20260904054704 | 69 | 55 | 1.0 | 3.0 | 0.01 | 0.46 | 0.01 | 96 | 990.9 |
| 20260904054204 | 69 | 68 | 1.0 | 3.0 | 0.01 | 0.46 | 0.01 | 96 | 990.8 |
| 20260904053704 | 69 | 64 | 1.0 | 3.0 | 0.01 | 0.46 | 0.01 | 96 | 990.9 |
| 20260904053204 | 69 | 160 | 1.0 | 2.0 | 0.00 | 0.46 | 0.00 | 96 | 991.3 |
| 20260904051704 | 69 | 32 | 2.0 | 2.0 | 0.00 | 0.45 | 0.00 | 96 | 992.0 |
| 20260904051203 | 69 | 135 | 0.0 | 2.0 | 0.00 | 0.45 | 0.00 | 96 | 992.4 |
| 20260904050705 | 69 | 135 | 1.0 | 2.0 | 0.01 | 0.45 | 0.00 | 96 | 992.7 |
| 20260904050203 | 69 | 144 | 0.0 | 2.0 | 0.01 | 0.45 | 0.00 | 96 | 992.9 |
| 20260904044703 | 69 | 287 | 2.0 | 3.0 | 0.02 | 0.67 | 0.34 | 96 | 993.3 |
| 20260904044204 | 69 | 10 | 1.0 | 2.0 | 0.02 | 0.67 | 0.34 | 96 | 992.9 |
| 20260904043204 | 69 | 57 | 0.0 | 1.0 | 0.06 | 0.67 | 0.34 | 96 | 992.5 |
| 20260904041704 | 69 | 27 | 0.0 | 3.0 | 0.09 | 0.67 | 0.34 | 96 | 992.0 |
| 20260904041205 | 69 | 24 | 1.0 | 3.0 | 0.10 | 0.67 | 0.34 | 96 | 992.0 |
| 20260904040703 | 69 | 71 | 2.0 | 5.0 | 0.10 | 0.67 | 0.34 | 96 | 991.7 |
| 20260904040204 | 69 | 68 | 2.0 | 5.0 | 0.09 | 0.67 | 0.34 | 96 | 991.5 |
| 20260904034204 | 69 | 61 | 3.0 | 5.0 | 0.08 | 0.65 | 0.32 | 96 | 991.3 |
| 20260904033704 | 69 | 52 | 0.0 | 3.0 | 0.07 | 0.64 | 0.31 | 96 | 992.5 |
| 20260904033204 | 69 | 352 | 0.0 | 3.0 | 0.04 | 0.61 | 0.28 | 96 | 993.3 |
| 20260904031704 | 68 | 6 | 2.0 | 2.0 | 0.00 | 0.58 | 0.25 | 96 | 993.2 |
| 20260904031203 | 68 | 11 | 1.0 | 3.0 | 0.00 | 0.58 | 0.25 | 96 | 993.2 |
| 20260904030703 | 68 | 38 | 2.0 | 3.0 | 0.00 | 0.58 | 0.25 | 96 | 993.2 |
| 20260904030203 | 68 | 11 | 2.0 | 3.0 | 0.00 | 0.58 | 0.25 | 96 | 993.3 |
| 20260904024204 | 67 | 5 | 1.0 | 3.0 | 0.00 | 0.58 | 0.25 | 96 | 993.1 |
| 20260904023703 | 67 | 7 | 2.0 | 3.0 | 0.00 | 0.58 | 0.25 | 95 | 993.0 |
| 20260904023203 | 68 | 7 | 1.0 | 2.0 | 0.00 | 0.58 | 0.25 | 95 | 992.9 |
| 20260904021704 | 68 | 41 | 0.0 | 1.0 | 0.00 | 0.58 | 0.25 | 95 | 992.4 |
| 20260904021204 | 68 | 41 | 0.0 | 1.0 | 0.00 | 0.58 | 0.25 | 95 | 992.5 |
| 20260904020704 | 68 | 51 | 0.0 | 1.0 | 0.00 | 0.58 | 0.25 | 95 | 992.3 |